Flag for Norway Weather past 2 weeks in Nærbø, Norway

Now
56 °F

Cool.


Feels Like: 55 °F
Forecast: 56 / 64 °F
Wind: 5 mph from North

Location: Obrestad

Current Time: Jul 4, 2015 at 3:42:40 AM

Latest Report: Jul 4, 2015 at 3:00 AM


Visibility: N/A

Pressure: 30.24 "Hg

Humidity: 98%

Dew point: 55 °F

Location of NærbøLocation

Historic Weather in Nærbø — Graph

°F

Nærbø temperature yesterday

Maximum temperature yesterday: 71 °F (at 12:00 AM)
Minimum temperature yesterday: 55 °F (at 7:00 PM)
Average temperature yesterday: 61 °F

Past Weeks' High & Low Weather Summary

 TemperatureHumidityPressure
High78 °F (Jul 2, 5:00 PM)98% (Jun 28, 4:00 AM)30.30 "Hg (Jun 28, 4:00 AM)
Low44 °F (Jun 26, 3:00 AM)43% (Jul 2, 5:00 PM)29.69 "Hg (Jun 22, 8:00 PM)
Average55 °F83%30.00 "Hg
* Reported Jun 19 2:00 AM — Jul 4 2:00 AM, Nærbø, Weather by CustomWeather, © 2015

Note: Actual official high and low records may vary slightly from our data, if they occured in-between our weather recording intervals... More about our weather records

Advertising

Nærbø weather history for previous 24 hours

 ConditionsComfort  
Time TempWeatherWind HumidityBarometerVisibility
2:00 AM
Sat, Jul 4
55 °FCool.6 mph98%30.25 "HgN/A
1:00 AM55 °FCool.6 mph98%30.25 "HgN/A
12:00 AM55 °FCool.7 mph98%30.27 "HgN/A
11:00 PM
Fri, Jul 3
56 °FCool.6 mph98%30.27 "HgN/A
10:00 PM56 °FCool.7 mph98%30.27 "HgN/A
9:00 PM56 °FCool.7 mph97%30.27 "HgN/A
8:00 PM56 °FCool.6 mph97%30.27 "HgN/A
7:00 PM55 °FCool.5 mph96%30.28 "HgN/A
6:00 PM56 °FCool.3 mph95%30.29 "HgN/A
5:00 PM57 °FCool.2 mph91%30.28 "HgN/A
4:00 PM58 °FCool.3 mph94%30.30 "HgN/A
3:00 PM56 °FCool.6 mph94%30.29 "HgN/A
2:00 PM58 °FCool.6 mph95%30.27 "HgN/A
1:00 PM60 °FCool.7 mph93%30.24 "HgN/A
12:00 PM58 °FCool.8 mph92%30.24 "HgN/A
11:00 AM61 °FCool.8 mph88%30.21 "HgN/A
10:00 AM58 °FCool.9 mph96%30.19 "HgN/A
9:00 AM61 °FCool.9 mph86%30.16 "HgN/A
8:00 AM64 °FMild.8 mph78%30.14 "HgN/A
7:00 AM62 °FCool.9 mph80%30.14 "HgN/A
6:00 AM65 °FMild.10 mph69%30.14 "HgN/A
4:00 AM67 °FMild.12 mph63%30.13 "HgN/A
3:00 AM67 °FMild.12 mph68%30.14 "HgN/A
Weather by CustomWeather, © 2015

See weather overviewHow to use our weather pages